Regional Weather Roundup
Issued by NWS Cleveland, OH

Home | Current Version | Previous Version | Graphics & Text | Print | Product List | Glossary On
Versions: 1 2 3 4 5 6 7 8 9 10 11 12 13 14 15 16 17 18 19 20 21 22 23 24 25 26 27 28 29 30 31 32 33 34 35 36 37 38 39 40 41 42 43 44 45 46 47 48 49 50
000
ASUS41 KCLE 220910
RWRCLE
OHIO REGIONAL WEATHER ROUNDUP
NATIONAL WEATHER SERVICE WILMINGTON, OH
400 AM EST THU FEB 22 2018

NOTE: "FAIR" INDICATES FEW OR NO CLOUDS BELOW 12,000 FEET WITH NO
SIGNIFICANT WEATHER AND/OR OBSTRUCTIONS TO VISIBILITY.

OHZ001>008-015>018-024>027-034-035-043-044-221000-
   NORTHWEST OHIO

CITY           SKY/WX    TMP DP  RH WIND       PRES   REMARKS
DEFIANCE       MIX PCPN  33  28  81 NE10      30.55R WCI  25
FINDLAY        FRZ RAIN  33  27  78 NE13      30.51F WCI  24
TOLEDO EXPRESS CLOUDY    32  29  88 E12       30.55F WCI  23
TOLEDO EXEC    CLOUDY    32  27  81 NE12      30.57F WCI  23
LIMA           FRZ RAIN  32  31  96 NE15      30.49F WCI  22
$$

OHZ009>014-019>023-028>033-038-089-221000-
   NORTHEAST OHIO

CITY           SKY/WX    TMP DP  RH WIND       PRES   REMARKS
CLE-HOPKINS    FRZ RAIN  32  29  88 NE16      30.56F WCI  21
CLE-LAKEFRONT  CLOUDY    33  29  85 NE15      30.56F WCI  23
CUY CO. ARPT   NOT AVBL
LORAIN-ELYRIA  FRZ RAIN  31  25  78 NE18      30.54F WCI  19
ASHTABULA      CLOUDY    31  27  85 NE6       30.57F WCI  25
AKRON-CANTON   LGT RAIN  34  30  85 NE12      30.50F WCI  25
WOOSTER        LGT RAIN  32  31  96 NE12      30.50F WCI  23
MANSFIELD      FRZ RAIN  32  30  92 N8G17     30.49F WCI  25
YOUNGSTOWN     LGTSLEET  34  31  88 NE8       30.52S WCI  27
$$

OHZ042-051>053-060>062-070>072-077>081-221000-
  SOUTHWEST OHIO

CITY           SKY/WX    TMP DP  RH WIND       PRES   REMARKS
CINC-COVINGTON RAIN      38  38 100 NE18      30.36F FOG
CINC-LUNKEN    RAIN      39  37  92 N10G21    30.42F
HAMILTON       LGT RAIN  39  31  72 NE8G20    30.43F
DAYTON         LGT RAIN  36  35  96 NE15G24   30.44F
WRIGHT-PAT AFB LGT RAIN  37  33  86 NE10      30.44F
DAYTON GENERAL RAIN      38  34  85 NE17G23   30.40F
WILMINGTON     RAIN      36  35  96 NE18G24   30.40F FOG
$$

OHZ036-037-039>041-045>050-054>059-063>069-073>076-082>088-221000-
  CENTRAL AND SOUTHEAST OHIO

CITY           SKY/WX    TMP DP  RH WIND       PRES   REMARKS
COLUMBUS       LGT RAIN  37  34  89 NE12      30.44F
OSU AIRPORT    LGT RAIN  36  34  92 N10       30.46F
BOLTON FIELD   RAIN      36  33  91 NE12      30.46S
RICKENBACK AFB LGT RAIN  36  36  99 N10       30.44F
NEWARK         LGT RAIN  36  33  89 NE5       30.45F
MARION         LGT RAIN  33  31  92 NE13      30.50F WCI  24
LANCASTER      RAIN      37  35  92 N10       30.44F FOG
ZANESVILLE     LGT RAIN  37  33  85 NE12      30.43F
NEW PHILLY     LGT RAIN  35  32  88 N8        30.49F WCI  29
$$




USA.gov is the U.S. government's official web portal to all federal, state and local government web resources and services.